Volver al catálogo

GSAT 14

ActivoComunicacionesGEO
NORAD 39498·PAYLOAD·🇮🇳 India

Lanzado Jan 5, 2014 desde Satish Dhawan Space Centre

Loading…

TLE

ActualizadoSource: Space-Track

Época: Sep 14, 2026, 14:09 UTC

1 39498U 14001A   26257.58983441 -.00000085  00000-0  00000-0 0  9997
2 39498   0.0270 249.3816 0005094 328.7564  61.7686  1.00272325 46275

Sigue GSAT 14 en tiempo real con AllMySat

Download on the App Store